DW1980 Weather Reports


Display with metric or nautical units.
time (UTC)temp
F
wind
direction
speed
MPH
gust
MPH
rain 1hr
in
rain 24hr
in
rain mn
in
humidity
%
barometer
mb
20260903205412 83 209 1.0 4.0 0.00 0.16 0.16 79 1012.7
20260903204841 84 242 2.0 4.0 0.00 0.16 0.16 80 1012.8
20260903204620 83 205 0.0 3.0 0.00 0.16 0.16 80 1012.2
20260903204555 83 0 0.0 3.0 0.00 0.16 0.16 79 1012.6
20260903204351 84 214 1.0 3.0 0.00 0.16 0.16 77 1012.7
20260903203842 84 360 1.0 5.0 0.00 0.16 0.16 79 1012.7
20260903203353 84 301 3.0 5.0 0.00 0.16 0.16 77 1012.8
20260903203119 83 304 1.0 3.0 0.00 0.16 0.16 77 1012.3
20260903203049 83 0 1.0 3.0 0.00 0.16 0.16 77 1012.7
20260903202840 84 5 2.0 3.0 0.00 0.16 0.16 79 1012.8
20260903202349 84 267 0.0 4.0 0.00 0.16 0.16 80 1012.8
20260903201840 84 313 2.0 5.0 0.00 0.16 0.16 78 1012.8
20260903201608 83 283 1.0 5.0 0.00 0.16 0.16 77 1012.2
20260903201602 84 302 1.0 5.0 0.00 0.16 0.16 77 1012.7
20260903201351 84 273 1.0 5.0 0.00 0.16 0.16 78 1012.9
20260903200841 85 315 2.0 7.0 0.00 0.16 0.16 77 1013.0
20260903200352 85 293 2.0 8.0 0.00 0.16 0.16 75 1012.9
20260903200118 85 275 1.0 8.0 0.00 0.16 0.16 77 1012.4
20260903200044 85 267 2.0 8.0 0.00 0.16 0.16 76 1012.7
20260903195838 85 267 3.0 8.0 0.00 0.21 0.16 75 1012.9
20260903195350 86 300 1.0 3.0 0.00 0.21 0.16 80 1012.9
20260903194845 86 9 1.0 3.0 0.00 0.21 0.16 76 1012.9
20260903194608 85 308 0.0 3.0 0.00 0.21 0.16 77 1012.3
20260903194554 85 0 0.0 3.0 0.00 0.21 0.16 76 1012.8
20260903194354 86 249 1.0 3.0 0.00 0.21 0.16 76 1012.9
20260903193841 85 259 0.0 4.0 0.00 0.21 0.16 75 1013.0
20260903193352 86 35 2.0 9.0 0.00 0.21 0.16 75 1013.0
20260903193114 85 315 2.0 9.0 0.00 0.21 0.16 75 1012.6
20260903193050 85 273 1.0 9.0 0.00 0.21 0.16 76 1013.0
20260903192839 86 285 4.0 9.0 0.00 0.21 0.16 74 1013.1
20260903192349 87 333 2.0 8.0 0.00 0.21 0.16 71 1013.1
20260903191839 87 286 3.0 9.0 0.00 0.21 0.16 74 1013.0
20260903191601 86 259 3.0 9.0 0.00 0.21 0.16 74 1012.6
20260903191552 86 281 4.0 9.0 0.00 0.21 0.16 75 1012.9
20260903191409 86 313 6.0 9.0 0.00 0.21 0.16 73 1013.1
20260903190837 87 236 2.0 6.0 0.00 0.21 0.16 75 1013.1
20260903190349 86 277 1.0 6.0 0.00 0.21 0.16 76 1013.2
20260903190106 84 325 1.0 4.0 0.00 0.21 0.16 78 1012.7
20260903190054 84 240 1.0 4.0 0.00 0.21 0.16 82 1013.0
20260903185853 84 297 2.0 4.0 0.00 0.52 0.16 82 1013.3
20260903185344 84 272 1.0 4.0 0.00 0.52 0.16 81 1013.3
20260903184854 85 220 2.0 7.0 0.00 0.52 0.16 77 1013.4
20260903184558 83 360 2.0 7.0 0.00 0.52 0.16 79 1013.3
20260903184505 83 36 1.0 7.0 0.00 0.52 0.16 80 1012.9
20260903184404 82 308 3.0 7.0 0.00 0.52 0.16 80 1013.4
20260903183854 82 213 2.0 4.0 0.00 0.52 0.16 81 1013.4
20260903183347 82 327 0.0 5.0 0.00 0.52 0.16 82 1013.5
20260903183111 82 238 0.0 5.0 0.00 0.52 0.16 81 1013.0
20260903183052 83 329 1.0 5.0 0.00 0.52 0.16 81 1013.4
20260903182853 83 317 1.0 5.0 0.00 0.52 0.16 80 1013.5
20260903182344 84 35 1.0 7.0 0.00 0.52 0.16 80 1013.6
20260903181915 84 295 3.0 10.0 0.00 0.52 0.16 77 1013.6
20260903181604 84 186 2.0 10.0 0.00 0.52 0.16 76 1013.1
20260903181552 84 261 2.0 10.0 0.00 0.52 0.16 75 1013.4
20260903181344 85 349 2.0 10.0 0.00 0.52 0.16 75 1013.6
20260903180853 84 333 5.0 9.0 0.00 0.52 0.16 79 1013.6
20260903180343 84 211 2.0 5.0 0.00 0.52 0.16 78 1013.7
20260903180107 84 224 2.0 5.0 0.00 0.52 0.16 78 1013.1
20260903180046 84 256 1.0 9.0 0.00 0.52 0.16 77 1013.6
20260903175911 85 196 1.0 9.0 0.00 0.52 0.16 79 1013.6
20260903175340 83 345 3.0 9.0 0.00 0.52 0.16 78 1013.7
20260903174912 82 288 4.0 10.0 0.00 0.52 0.16 79 1013.8
20260903174618 82 327 2.0 10.0 0.00 0.52 0.16 80 1013.4
20260903174555 82 291 1.0 10.0 0.00 0.52 0.16 81 1013.8
20260903174340 82 249 2.0 10.0 0.00 0.52 0.16 79 1013.9
20260903173850 83 280 1.0 10.0 0.00 0.52 0.16 82 1014.0
20260903173341 83 32 5.0 10.0 0.00 0.52 0.16 77 1014.0
20260903173105 83 292 4.0 8.0 0.00 0.52 0.16 77 1013.6
20260903173058 83 283 3.0 8.0 0.00 0.52 0.16 76 1013.9
20260903172847 84 272 3.0 6.0 0.00 0.52 0.16 77 1014.2
20260903172337 83 255 3.0 8.0 0.00 0.52 0.16 80 1014.2
20260903171848 83 355 5.0 8.0 0.00 0.52 0.16 79 1014.3
20260903171617 82 279 3.0 7.0 0.00 0.52 0.16 80 1013.8
20260903171559 82 295 1.0 7.0 0.00 0.52 0.16 80 1014.0
20260903171338 83 221 2.0 7.0 0.00 0.52 0.16 80 1014.2
20260903170848 82 309 2.0 10.0 0.00 0.52 0.16 82 1014.2
20260903170339 80 318 3.0 10.0 0.00 0.52 0.16 83 1014.3
20260903170103 80 360 1.0 7.0 0.00 0.52 0.16 84 1013.9
20260903170046 80 344 1.0 7.0 0.00 0.52 0.16 84 1014.0
20260903165845 80 331 2.0 7.0 0.00 0.52 0.16 84 1014.3
20260903165335 81 333 0.0 7.0 0.00 0.52 0.16 84 1014.3
20260903164846 81 296 3.0 7.0 0.00 0.52 0.16 83 1014.3
20260903164615 80 306 2.0 5.0 0.00 0.52 0.16 83 1013.9
20260903164605 80 282 1.0 5.0 0.00 0.52 0.16 83 1014.1
20260903164342 81 311 2.0 5.0 0.00 0.52 0.16 84 1014.3
20260903163850 80 263 1.0 7.0 0.00 0.52 0.16 84 1014.3
20260903163339 80 294 3.0 7.0 0.00 0.52 0.16 86 1014.4
20260903163120 79 307 1.0 7.0 0.00 0.52 0.16 86 1014.0
20260903163053 79 0 2.0 7.0 0.00 0.52 0.16 85 1014.2
20260903162846 79 251 3.0 7.0 0.00 0.52 0.16 85 1014.6
20260903162356 79 256 2.0 8.0 0.00 0.52 0.16 86 1014.7
20260903161846 79 275 3.0 9.0 0.00 0.52 0.16 85 1014.7
20260903161609 78 257 2.0 11.0 0.00 0.52 0.16 85 1014.3
20260903161550 78 292 3.0 11.0 0.00 0.52 0.16 84 1014.3
20260903161336 79 295 5.0 11.0 0.00 0.52 0.16 84 1014.6
20260903160907 79 292 4.0 11.0 0.00 0.52 0.16 84 1014.7
20260903160355 79 281 3.0 9.0 0.00 0.52 0.16 87 1015.0
20260903160045 77 215 3.0 8.0 0.00 0.52 0.16 85 1014.5
20260903160005 78 234 3.0 8.0 0.00 0.52 0.16 86 1014.5
20260903155900 78 264 3.0 8.0 0.00 0.52 0.16 85 1015.0
20260903155350 79 32 2.0 10.0 0.00 0.52 0.16 86 1015.0
20260903154843 78 274 5.0 10.0 0.00 0.52 0.16 85 1015.2
20260903154605 77 285 3.0 10.0 0.00 0.52 0.16 85 1014.8
20260903154553 77 301 3.0 14.0 0.00 0.52 0.16 86 1014.8
20260903154350 78 209 3.0 9.0 0.00 0.52 0.16 85 1015.1
20260903153840 78 300 3.0 14.0 0.00 0.52 0.16 86 1015.0
20260903153351 78 276 5.0 12.0 0.00 0.52 0.16 87 1014.9
20260903153116 76 278 1.0 12.0 0.00 0.52 0.16 88 1014.5
20260903153101 76 304 1.0 12.0 0.00 0.52 0.16 86 1014.5
20260903152838 77 225 3.0 12.0 0.00 0.52 0.16 87 1015.0
20260903152348 77 310 4.0 10.0 0.00 0.52 0.16 87 1015.1
20260903151837 76 346 2.0 9.0 0.00 0.52 0.16 88 1015.2
20260903151605 75 308 2.0 9.0 0.00 0.52 0.16 88 1014.8
20260903151555 75 302 3.0 9.0 0.00 0.52 0.16 87 1014.9
20260903151348 75 271 4.0 9.0 0.00 0.52 0.16 89 1015.2
20260903150837 75 122 2.0 6.0 0.00 0.52 0.16 89 1015.2
20260903150411 75 223 1.0 7.0 0.00 0.52 0.16 90 1015.2
20260903150122 74 236 1.0 7.0 0.00 0.52 0.16 90 1014.7
20260903150052 74 280 1.0 7.0 0.00 0.52 0.16 90 1014.8
20260903145838 75 239 3.0 7.0 0.00 0.52 0.16 90 1015.2
20260903145349 74 216 2.0 11.0 0.00 0.52 0.16 92 1015.1
20260903144838 73 209 4.0 11.0 0.00 0.52 0.16 94 1015.2
20260903144607 72 286 0.0 6.0 0.00 0.52 0.16 94 1014.7
20260903144545 72 0 1.0 7.0 0.00 0.52 0.16 94 1014.8
20260903144348 73 278 3.0 6.0 0.00 0.52 0.16 94 1015.2
20260903143840 72 323 2.0 9.0 0.00 0.52 0.16 95 1015.4
20260903143351 72 249 2.0 9.0 0.00 0.52 0.16 95 1015.3
20260903143117 72 278 3.0 9.0 0.00 0.52 0.16 95 1015.0
20260903143106 72 255 3.0 8.0 0.00 0.52 0.16 95 1015.0
20260903142855 72 223 4.0 6.0 0.00 0.52 0.16 95 1015.5
20260903142345 72 275 1.0 7.0 0.00 0.52 0.16 95 1015.4
20260903141853 72 279 3.0 7.0 0.00 0.52 0.16 95 1015.3
20260903141601 71 314 3.0 7.0 0.00 0.52 0.16 95 1015.0
20260903141553 71 289 1.0 5.0 0.00 0.52 0.16 95 1015.0
20260903141344 72 5 2.0 5.0 0.00 0.52 0.16 95 1015.4
20260903140853 71 250 1.0 11.0 0.00 0.52 0.16 95 1015.2
20260903140404 71 232 2.0 11.0 0.00 0.52 0.16 96 1015.3
20260903140114 71 164 2.0 11.0 0.00 0.52 0.16 96 1014.9
20260903140057 71 240 1.0 6.0 0.00 0.52 0.16 95 1014.9
20260903135850 71 263 1.0 4.0 0.00 0.52 0.16 96 1015.3
20260903135359 71 211 0.0 2.0 0.00 0.52 0.16 96 1015.2
20260903134849 71 227 0.0 4.0 0.00 0.52 0.16 96 1015.4
20260903134617 71 227 0.0 4.0 0.00 0.52 0.16 96 1015.0
20260903134556 71 227 1.0 4.0 0.00 0.52 0.16 95 1014.9
20260903134400 71 212 2.0 4.0 0.00 0.52 0.16 96 1015.4
20260903133851 71 233 0.0 4.0 0.00 0.52 0.16 96 1015.4
20260903133342 71 214 2.0 4.0 0.00 0.52 0.16 96 1015.3
20260903133109 70 204 1.0 3.0 0.00 0.52 0.16 95 1015.0
20260903133104 70 0 1.0 5.0 0.00 0.52 0.16 95 1014.9
20260903132848 71 225 1.0 5.0 0.00 0.52 0.16 95 1015.4
20260903132343 71 225 1.0 5.0 0.00 0.52 0.16 96 1015.4
20260903131852 71 39 1.0 3.0 0.00 0.52 0.16 96 1015.3
20260903131614 70 203 0.0 4.0 0.00 0.52 0.16 96 1014.9
20260903131556 70 0 0.0 4.0 0.00 0.52 0.16 95 1014.8
20260903131340 70 171 0.0 4.0 0.00 0.52 0.16 96 1015.3
20260903130848 70 171 1.0 4.0 0.00 0.52 0.16 95 1015.3
20260903130356 70 120 0.0 3.0 0.00 0.52 0.16 95 1015.3
20260903130125 70 0 0.0 1.0 0.00 0.52 0.16 95 1015.0
20260903130114 70 86 0.0 1.0 0.00 0.52 0.16 95 1015.1
20260903125841 70 178 0.0 1.0 0.00 0.52 0.16 95 1015.7
20260903125348 70 178 0.0 2.0 0.00 0.52 0.16 95 1015.7
20260903124837 70 178 0.0 2.0 0.00 0.52 0.16 95 1015.6
20260903124621 70 178 0.0 2.0 0.00 0.52 0.16 95 1015.2
20260903124558 69 178 0.0 1.0 0.00 0.52 0.16 95 1015.2
20260903124347 70 216 0.0 1.0 0.00 0.52 0.16 95 1015.8
20260903123857 70 216 0.0 2.0 0.00 0.52 0.16 96 1015.9
20260903123347 70 216 0.0 2.0 0.00 0.52 0.16 96 1016.0
20260903123107 69 217 0.0 2.0 0.00 0.52 0.16 96 1015.6
20260903123053 69 0 0.0 2.0 0.00 0.52 0.16 95 1015.6
20260903122914 70 217 1.0 2.0 0.00 0.52 0.16 96 1016.0
20260903122343 70 119 0.0 1.0 0.00 0.52 0.16 96 1015.8
20260903121853 70 119 0.0 1.0 0.00 0.52 0.16 95 1016.0
20260903121555 69 119 0.0 1.0 0.00 0.52 0.16 95 1015.5
20260903121504 69 119 0.0 1.0 0.00 0.52 0.16 95 1015.6
20260903121404 69 119 0.0 1.0 0.00 0.52 0.16 95 1016.0
20260903120854 69 119 0.0 1.0 0.00 0.52 0.16 95 1015.8
20260903120346 69 120 0.0 1.0 0.00 0.52 0.16 95 1016.1
20260903120110 69 120 0.0 1.0 0.00 0.52 0.16 96 1015.7
20260903120053 69 0 0.0 1.0 0.00 0.52 0.16 95 1015.6
20260903115852 69 120 0.0 1.0 0.00 0.52 0.16 95 1016.2
20260903115341 69 119 0.0 1.0 0.00 0.52 0.16 96 1016.1
20260903114851 69 119 1.0 1.0 0.00 0.52 0.16 95 1016.1
20260903114619 68 119 0.0 0.0 0.00 0.52 0.16 95 1015.6
20260903114552 68 0 0.0 2.0 0.00 0.52 0.16 95 1015.4
20260903114341 69 119 0.0 1.0 0.00 0.52 0.16 95 1016.0
20260903113850 69 119 0.0 2.0 0.00 0.52 0.16 95 1016.0
20260903113343 69 126 0.0 2.0 0.00 0.52 0.16 95 1016.1
20260903113108 68 126 0.0 2.0 0.00 0.52 0.16 95 1015.7
20260903113045 68 0 0.0 2.0 0.00 0.52 0.16 95 1015.6
20260903112850 69 183 0.0 1.0 0.00 0.52 0.16 95 1016.0
20260903112341 69 290 0.0 1.0 0.00 0.52 0.16 95 1016.0
20260903111912 69 290 0.0 1.0 0.00 0.52 0.16 95 1016.0
20260903111619 68 290 0.0 0.0 0.00 0.52 0.16 95 1015.6
20260903111556 68 0 0.0 1.0 0.00 0.52 0.16 95 1015.5
20260903111341 69 290 0.0 1.0 0.00 0.52 0.16 95 1015.9
20260903110849 69 290 0.0 1.0 0.00 0.52 0.16 95 1016.0
20260903110341 69 290 0.0 1.0 0.00 0.52 0.16 95 1016.1
20260903110106 68 290 0.0 2.0 0.00 0.52 0.16 95 1015.7
20260903110050 68 0 0.0 2.0 0.00 0.52 0.16 95 1015.6
20260903105849 69 290 0.0 2.0 0.00 0.52 0.16 95 1016.1
20260903105340 69 290 0.0 1.0 0.00 0.52 0.16 95 1016.2
20260903104851 69 350 0.0 1.0 0.00 0.52 0.16 95 1016.0
20260903104618 68 338 0.0 1.0 0.00 0.52 0.16 95 1015.5
20260903104554 68 0 0.0 1.0 0.00 0.52 0.16 95 1015.3
20260903104340 69 236 0.0 1.0 0.00 0.52 0.16 95 1015.9
20260903103852 69 236 0.0 3.0 0.00 0.52 0.16 95 1016.0
20260903103404 69 229 2.0 5.0 0.00 0.52 0.16 95 1016.2
20260903103108 68 243 1.0 5.0 0.00 0.52 0.16 95 1015.8
20260903103056 68 0 1.0 6.0 0.00 0.52 0.16 95 1015.7
20260903102849 69 239 1.0 5.0 0.00 0.52 0.16 95 1016.2
20260903102340 69 238 2.0 5.0 0.00 0.52 0.16 95 1016.1
20260903101851 69 287 2.0 5.0 0.00 0.52 0.16 95 1016.0
20260903101618 69 263 2.0 3.0 0.00 0.52 0.16 95 1015.4
20260903101555 69 308 1.0 3.0 0.00 0.52 0.16 95 1015.3
20260903101344 69 248 1.0 3.0 0.00 0.52 0.16 95 1015.8
20260903100855 69 252 1.0 3.0 0.00 0.52 0.16 95 1015.8
20260903100345 69 253 1.0 2.0 0.00 0.52 0.16 95 1015.8
20260903100105 69 252 0.0 2.0 0.00 0.52 0.16 95 1015.3
20260903100053 69 0 0.0 2.0 0.00 0.52 0.16 95 1015.2
20260903095852 69 236 1.0 2.0 0.00 0.53 0.16 95 1015.7
20260903095341 69 260 1.0 2.0 0.00 0.53 0.16 95 1015.6
20260903094852 69 265 1.0 7.0 0.00 0.53 0.16 95 1015.6
20260903094616 69 209 0.0 7.0 0.00 0.53 0.16 95 1015.1
20260903094605 69 0 2.0 7.0 0.00 0.52 0.16 95 1015.0
20260903094343 69 240 3.0 7.0 0.00 0.53 0.16 95 1015.6
20260903093854 69 117 1.0 5.0 0.00 0.53 0.16 95 1015.3
20260903093347 69 228 3.0 5.0 0.00 0.53 0.16 95 1015.8
20260903093136 69 231 1.0 4.0 0.00 0.53 0.16 95 1015.2
20260903093055 69 228 1.0 4.0 0.00 0.52 0.16 95 1015.1
20260903092853 69 234 1.0 4.0 0.00 0.53 0.16 95 1015.5
20260903092344 69 217 0.0 4.0 0.00 0.53 0.16 95 1015.5
20260903091853 69 232 3.0 4.0 0.00 0.53 0.16 95 1015.6
20260903091603 68 251 2.0 3.0 0.00 0.53 0.16 95 1015.2
20260903091552 68 209 1.0 4.0 0.00 0.52 0.16 95 1015.0
20260903091404 69 209 1.0 4.0 0.00 0.53 0.16 95 1015.6
20260903090914 69 258 1.0 4.0 0.00 0.53 0.16 95 1015.6
20260903090405 68 235 1.0 3.0 0.00 0.53 0.16 95 1015.8
20260903090111 68 210 0.0 2.0 0.00 0.53 0.16 95 1015.2
20260903090057 68 0 0.0 2.0 0.00 0.52 0.16 95 1015.0
20260903085850 68 209 1.0 2.0 0.00 0.53 0.16 95 1015.4
20260903085341 68 115 0.0 1.0 0.00 0.53 0.16 95 1015.3
20260903084853 68 115 0.0 1.0 0.00 0.53 0.16 95 1015.4
20260903084601 68 115 0.0 1.0 0.00 0.53 0.16 95 1015.1
20260903084543 68 0 0.0 1.0 0.00 0.52 0.16 95 1014.9
20260903084404 68 115 0.0 1.0 0.00 0.53 0.16 95 1015.3
20260903083853 68 115 1.0 1.0 0.00 0.53 0.16 95 1015.4
20260903083346 68 76 0.0 2.0 0.00 0.53 0.16 95 1015.5
20260903083110 68 76 0.0 2.0 0.01 0.53 0.16 95 1015.4
20260903083101 68 76 0.0 2.0 0.01 0.52 0.16 95 1015.3
20260903082853 68 76 0.0 1.0 0.01 0.53 0.16 95 1015.9
20260903082344 68 76 0.0 1.0 0.01 0.53 0.16 95 1016.1
20260903081835 68 76 0.0 3.0 0.01 0.53 0.16 95 1016.2
20260903081606 67 76 0.0 3.0 0.01 0.53 0.16 95 1015.9
20260903081553 67 0 0.0 3.0 0.01 0.52 0.16 95 1015.8
20260903081347 68 76 0.0 3.0 0.01 0.53 0.16 95 1016.3
20260903080838 68 253 0.0 1.0 0.01 0.53 0.16 95 1016.4
20260903080349 68 253 0.0 1.0 0.02 0.53 0.16 95 1016.4
20260903080124 67 253 0.0 1.0 0.02 0.53 0.16 95 1016.1
20260903080051 67 0 0.0 1.0 0.02 0.52 0.16 95 1016.0
20260903075916 68 253 0.0 1.0 0.02 0.53 0.16 95 1016.4
20260903075407 68 253 0.0 1.0 0.02 0.53 0.16 95 1016.3
20260903074837 68 253 0.0 1.0 0.02 0.53 0.16 95 1016.1
20260903074633 67 253 0.0 1.0 0.02 0.53 0.16 95 1015.9
20260903074605 67 0 0.0 1.0 0.02 0.52 0.16 95 1015.8
20260903074407 68 253 0.0 1.0 0.02 0.53 0.16 95 1016.3
20260903073857 68 253 0.0 1.0 0.02 0.53 0.16 95 1016.3
20260903073349 68 253 0.0 1.0 0.01 0.52 0.15 95 1016.3
20260903073113 67 253 0.0 1.0 0.01 0.52 0.15 95 1016.0
20260903072856 68 253 0.0 1.0 0.01 0.52 0.15 95 1016.4
20260903072346 68 304 0.0 1.0 0.01 0.52 0.15 95 1016.4
20260903071855 68 304 0.0 1.0 0.01 0.52 0.15 95 1016.3
20260903071615 67 0 0.0 1.0 0.01 0.52 0.15 95 1015.8
20260903071612 67 304 0.0 1.0 0.01 0.52 0.15 95 1015.9
20260903071345 68 304 0.0 1.0 0.01 0.52 0.15 95 1016.3
20260903070836 68 304 0.0 0.0 0.00 0.51 0.14 95 1016.5
20260903070347 68 304 0.0 0.0 0.01 0.51 0.14 95 1016.6
20260903070117 67 304 0.0 0.0 0.01 0.51 0.14 95 1016.4
20260903070052 67 0 0.0 0.0 0.01 0.51 0.14 95 1016.3
20260903065853 68 304 0.0 0.0 0.01 0.51 0.14 95 1016.8
20260903065344 68 304 0.0 0.0 0.01 0.51 0.14 95 1016.8
20260903064837 68 304 0.0 1.0 0.01 0.51 0.14 95 1016.8
20260903064601 67 304 0.0 1.0 0.01 0.51 0.14 95 1016.5
20260903064542 67 0 0.0 1.0 0.01 0.51 0.14 95 1016.4
20260903064348 67 304 0.0 1.0 0.01 0.51 0.14 95 1016.8
20260903063839 68 304 0.0 0.0 0.01 0.51 0.14 95 1016.7
20260903063411 67 304 0.0 0.0 0.01 0.51 0.14 95 1016.7
20260903063111 67 304 0.0 0.0 0.02 0.51 0.14 95 1016.3
20260903063047 67 0 0.0 0.0 0.02 0.51 0.14 95 1016.2
20260903062838 67 304 0.0 0.0 0.02 0.51 0.14 95 1016.7
20260903062347 67 304 0.0 0.0 0.03 0.51 0.14 95 1016.8
20260903061854 68 304 0.0 0.0 0.04 0.51 0.14 95 1016.9
20260903061551 67 0 0.0 1.0 0.05 0.51 0.14 94 1016.6
20260903061508 67 304 0.0 1.0 0.05 0.51 0.14 95 1016.7
20260903061404 68 304 0.0 1.0 0.06 0.51 0.14 95 1017.1
20260903060853 68 304 0.0 1.0 0.08 0.51 0.14 95 1017.3
20260903060345 67 304 0.0 0.0 0.08 0.50 0.13 95 1017.5
20260903060111 67 0 0.0 1.0 0.09 0.50 0.13 94 1017.2
20260903060104 67 304 0.0 1.0 0.09 0.50 0.13 95 1017.3
20260903055911 67 304 0.0 1.0 0.10 0.50 0.13 95 1017.6
20260903055338 67 304 0.0 1.0 0.11 0.50 0.13 95 1017.6
20260903054849 67 304 1.0 3.0 0.11 0.50 0.13 95 1017.5
20260903054613 67 304 0.0 4.0 0.11 0.50 0.13 95 1017.3
20260903054544 67 0 0.0 4.0 0.11 0.50 0.13 94 1017.1
20260903054340 67 304 0.0 4.0 0.11 0.50 0.13 95 1017.5
20260903053850 67 261 1.0 4.0 0.12 0.50 0.13 95 1017.2
20260903053342 67 159 1.0 4.0 0.12 0.50 0.13 95 1017.2
20260903053106 67 196 0.0 1.0 0.11 0.49 0.12 95 1017.3
20260903053053 67 0 0.0 1.0 0.11 0.49 0.12 94 1017.3
20260903052850 67 196 0.0 0.0 0.11 0.49 0.12 95 1017.7
20260903052340 67 196 0.0 1.0 0.10 0.48 0.11 95 1017.8
20260903051849 67 196 0.0 1.0 0.09 0.47 0.10 95 1018.3
20260903051617 67 196 0.0 2.0 0.08 0.46 0.09 95 1018.1
20260903051607 67 0 0.0 2.0 0.08 0.46 0.09 94 1018.2
20260903051339 68 197 0.0 2.0 0.07 0.45 0.08 95 1018.6
20260903050848 68 197 1.0 3.0 0.05 0.43 0.06 95 1019.0
20260903050340 67 215 1.0 3.0 0.03 0.41 0.04 95 1019.5
20260903050105 67 244 1.0 3.0 0.04 0.41 0.04 95 1019.2
20260903050050 67 271 1.0 3.0 0.04 0.41 0.04 94 1019.2
20260903045847 67 217 1.0 2.0 0.03 0.40 0.03 95 1019.5
20260903045338 67 280 1.0 2.0 0.02 0.39 0.02 95 1019.4
20260903044909 67 280 0.0 0.0 0.02 0.39 0.02 95 1019.1
20260903044617 67 279 0.0 0.0 0.02 0.39 0.02 95 1018.5
20260903044556 67 0 0.0 1.0 0.02 0.39 0.02 94 1018.6
20260903044359 67 280 0.0 1.0 0.02 0.39 0.02 95 1018.9
20260903043910 67 279 0.0 2.0 0.01 0.38 0.01 95 1019.0
20260903043359 67 280 1.0 2.0 0.01 0.38 0.01 95 1019.0
20260903043103 67 280 0.0 1.0 0.01 0.38 0.01 95 1018.6
20260903043051 67 0 0.0 2.0 0.01 0.38 0.01 94 1018.6
20260903042845 67 280 0.0 2.0 0.01 0.38 0.01 95 1018.9
20260903042354 67 279 1.0 2.0 0.01 0.38 0.01 95 1018.9
20260903041845 67 280 0.0 0.0 0.01 0.38 0.01 95 1018.7
20260903041616 67 280 0.0 0.0 0.01 0.38 0.01 95 1018.3
20260903041556 67 0 0.0 0.0 0.01 0.38 0.01 95 1018.4
20260903041355 67 279 0.0 0.0 0.01 0.38 0.01 95 1018.8
20260903040845 67 280 0.0 0.0 0.01 0.38 0.01 95 1019.0
20260903040356 67 280 0.0 0.0 0.01 0.38 0.01 95 1019.1
20260903040103 67 0 0.0 1.0 0.00 0.37 0.00 94 1018.9
20260903035844 67 280 0.0 1.0 0.00 0.37 0.37 95 1019.2
20260903035354 67 279 0.0 1.0 0.00 0.37 0.37 95 1019.1
20260903034844 67 279 0.0 0.0 0.00 0.37 0.37 95 1019.2
20260903034612 67 279 0.0 0.0 0.00 0.37 0.37 95 1019.0
20260903034551 67 0 0.0 1.0 0.00 0.37 0.37 94 1019.0
20260903034354 67 280 0.0 1.0 0.00 0.37 0.37 95 1019.3
20260903033845 67 279 0.0 1.0 0.00 0.37 0.37 95 1019.3
20260903033340 67 280 0.0 1.0 0.00 0.37 0.37 95 1019.1
20260903033125 66 280 0.0 1.0 0.00 0.37 0.37 95 1018.7
20260903033051 66 280 0.0 1.0 0.00 0.37 0.37 94 1018.7
20260903032847 67 280 0.0 0.0 0.00 0.37 0.37 95 1018.9
20260903032356 67 279 0.0 1.0 0.00 0.37 0.37 95 1018.7
20260903031845 67 279 0.0 1.0 0.00 0.37 0.37 95 1018.8
20260903031635 66 280 0.0 1.0 0.00 0.37 0.37 95 1018.5
20260903031556 66 0 0.0 1.0 0.00 0.37 0.37 94 1018.5
20260903031412 67 279 0.0 1.0 0.00 0.37 0.37 95 1018.8
20260903030845 67 280 0.0 0.0 0.00 0.37 0.37 95 1018.8
20260903030411 67 280 0.0 0.0 0.00 0.37 0.37 95 1019.0
20260903030114 66 280 0.0 0.0 0.00 0.37 0.37 95 1018.7
20260903030054 66 0 0.0 0.0 0.00 0.37 0.37 94 1018.8
20260903025841 67 280 0.0 0.0 0.00 0.37 0.37 95 1019.1
20260903025353 67 280 0.0 0.0 0.00 0.37 0.37 95 1019.3
20260903024903 67 280 0.0 0.0 0.00 0.37 0.37 95 1019.3
20260903024608 66 279 0.0 0.0 0.00 0.37 0.37 95 1018.9
20260903024552 66 0 0.0 0.0 0.00 0.37 0.37 94 1018.9
20260903024353 67 280 0.0 0.0 0.00 0.37 0.37 95 1019.3
20260903023843 66 280 0.0 0.0 0.00 0.37 0.37 95 1019.4
20260903023355 66 280 0.0 0.0 0.00 0.37 0.37 95 1019.2
20260903023116 66 280 0.0 0.0 0.00 0.37 0.37 95 1019.1
20260903023057 66 0 0.0 0.0 0.00 0.37 0.37 94 1019.1
20260903022841 66 280 0.0 0.0 0.00 0.37 0.37 95 1019.5
20260903022353 66 279 0.0 0.0 0.00 0.37 0.37 95 1019.3
20260903021842 66 280 0.0 0.0 0.00 0.37 0.37 95 1019.4
20260903021607 66 280 0.0 1.0 0.00 0.37 0.37 95 1019.2
20260903021603 66 0 0.0 1.0 0.00 0.37 0.37 94 1019.3
20260903021352 66 280 0.0 1.0 0.00 0.37 0.37 95 1019.6
20260903020841 66 280 0.0 1.0 0.00 0.37 0.37 95 1019.7
20260903020352 66 280 0.0 1.0 0.00 0.37 0.37 95 1019.7
20260903020118 66 280 0.0 0.0 0.00 0.37 0.37 95 1019.3
20260903020044 66 0 0.0 1.0 0.00 0.37 0.37 94 1019.3
20260903015840 66 279 0.0 1.0 0.00 0.37 0.37 95 1019.6
20260903015350 66 279 0.0 1.0 0.00 0.37 0.37 95 1019.5
20260903014839 66 279 0.0 1.0 0.00 0.37 0.37 95 1019.4
20260903014604 66 0 0.0 1.0 0.00 0.37 0.37 94 1019.2
20260903014350 66 279 0.0 1.0 0.00 0.37 0.37 95 1019.5
20260903013839 66 279 0.0 1.0 0.00 0.37 0.37 95 1019.6
20260903013350 66 279 0.0 0.0 0.00 0.37 0.37 95 1019.6
20260903013115 66 279 0.0 0.0 0.00 0.37 0.37 95 1019.2
20260903013055 66 0 0.0 0.0 0.00 0.37 0.37 94 1019.3
20260903012838 66 279 0.0 0.0 0.00 0.37 0.37 95 1019.7
20260903012349 66 279 0.0 0.0 0.00 0.37 0.37 95 1019.9
20260903011839 66 279 0.0 0.0 0.00 0.37 0.37 95 1019.9
20260903011607 66 279 0.0 0.0 0.00 0.37 0.37 95 1019.6
20260903011554 65 0 0.0 1.0 0.00 0.37 0.37 94 1019.5
20260903011350 66 279 0.0 1.0 0.00 0.37 0.37 95 1019.9
20260903010839 66 279 0.0 1.0 0.00 0.37 0.37 95 1020.1
20260903010351 66 279 0.0 0.0 0.00 0.37 0.37 95 1020.1
20260903010116 65 279 0.0 0.0 0.00 0.37 0.37 95 1019.6
20260903010047 65 0 0.0 0.0 0.00 0.37 0.37 94 1019.7
20260903005838 66 280 0.0 0.0 0.00 0.37 0.37 95 1020.1
20260903005349 66 279 0.0 0.0 0.00 0.37 0.37 95 1019.9
20260903004840 66 279 0.0 0.0 0.00 0.37 0.37 95 1020.0
20260903004609 65 279 0.0 0.0 0.00 0.37 0.37 95 1019.7
20260903004553 65 0 0.0 0.0 0.00 0.37 0.37 94 1019.7
20260903004351 66 280 0.0 0.0 0.00 0.37 0.37 95 1020.2
20260903003846 66 279 0.0 0.0 0.00 0.37 0.37 95 1020.2
20260903003357 66 280 0.0 2.0 0.00 0.37 0.37 95 1020.4
20260903003051 65 0 0.0 2.0 0.00 0.37 0.37 94 1020.1
20260903003005 65 279 0.0 2.0 0.00 0.37 0.37 95 1020.0
20260903002904 66 279 0.0 1.0 0.00 0.37 0.37 95 1020.3
20260903002355 66 279 0.0 0.0 0.00 0.37 0.37 95 1020.0
20260903001845 66 280 0.0 1.0 0.00 0.37 0.37 94 1019.9
20260903001609 65 279 0.0 2.0 0.00 0.37 0.37 94 1019.5
20260903001602 65 0 0.0 2.0 0.00 0.37 0.37 94 1019.5
20260903001335 66 279 0.0 2.0 0.00 0.37 0.37 94 1019.7
20260903000846 66 279 1.0 3.0 0.00 0.37 0.37 94 1019.5
20260903000358 66 221 0.0 3.0 0.00 0.37 0.37 95 1019.4
20260903000119 66 145 0.0 3.0 0.00 0.37 0.37 95 1018.9
20260903000051 66 163 0.0 2.0 0.00 0.37 0.37 94 1018.9
20260902235843 66 175 0.0 2.0 0.00 0.37 0.37 95 1019.2
20260902235354 66 173 1.0 2.0 0.00 0.37 0.37 95 1019.1
20260902234844 66 298 0.0 1.0 0.00 0.37 0.37 95 1019.4
20260902234612 66 0 0.0 1.0 0.00 0.37 0.37 94 1019.2
20260902234354 66 298 0.0 1.0 0.00 0.37 0.37 95 1019.4
20260902233905 66 298 0.0 1.0 0.00 0.37 0.37 95 1019.3
20260902233355 66 320 0.0 1.0 0.00 0.37 0.37 95 1019.4
20260902233121 66 319 0.0 0.0 0.00 0.37 0.37 95 1019.2
20260902233049 66 0 0.0 0.0 0.00 0.37 0.37 94 1019.1
20260902232842 66 327 0.0 0.0 0.00 0.37 0.37 95 1019.5
20260902232352 66 327 0.0 0.0 0.00 0.37 0.37 95 1019.5
20260902231841 66 327 0.0 0.0 0.00 0.37 0.37 95 1019.6
20260902231611 66 327 0.0 1.0 0.00 0.37 0.37 94 1019.4
20260902231545 66 0 0.0 1.0 0.00 0.37 0.37 94 1019.5
20260902231413 66 327 0.0 1.0 0.00 0.37 0.37 95 1019.8
20260902230902 66 327 0.0 1.0 0.00 0.37 0.37 94 1019.9
20260902230352 66 33 0.0 1.0 0.00 0.37 0.37 94 1020.0
20260902230117 66 33 0.0 1.0 0.00 0.37 0.37 94 1019.7
20260902230106 66 0 0.0 1.0 0.00 0.37 0.37 94 1019.8
20260902225900 66 33 0.0 1.0 0.00 0.37 0.37 94 1020.1
20260902225349 67 70 0.0 0.0 0.00 0.37 0.37 94 1020.1
20260902224839 66 70 0.0 1.0 0.00 0.37 0.37 94 1020.2
20260902224609 66 70 0.0 1.0 0.00 0.37 0.37 94 1019.9
20260902224551 66 0 0.0 1.0 0.00 0.37 0.37 94 1019.8
20260902224350 66 70 0.0 1.0 0.00 0.37 0.37 94 1020.3
20260902223900 66 70 0.0 1.0 0.00 0.37 0.37 94 1020.3
20260902223412 66 70 0.0 2.0 0.00 0.37 0.37 94 1020.5
20260902223116 66 70 0.0 2.0 0.00 0.37 0.37 94 1020.1
20260902223048 66 0 0.0 2.0 0.00 0.37 0.37 94 1020.0
20260902222837 66 48 0.0 2.0 0.00 0.37 0.37 94 1020.5
20260902222409 66 220 0.0 0.0 0.00 0.37 0.37 94 1020.6
20260902221838 66 220 0.0 1.0 0.00 0.37 0.37 94 1020.8
20260902221606 66 220 0.0 1.0 0.00 0.37 0.37 94 1020.5
20260902221547 66 0 0.0 1.0 0.00 0.37 0.37 94 1020.4
20260902221347 66 220 0.0 1.0 0.00 0.37 0.37 94 1020.9
20260902220837 66 220 0.0 2.0 0.00 0.37 0.37 94 1021.0
20260902220350 66 220 0.0 2.0 0.00 0.37 0.37 94 1020.9
20260902220115 66 220 0.0 2.0 0.00 0.37 0.37 94 1020.5
20260902220046 66 0 0.0 2.0 0.00 0.37 0.37 94 1020.4
20260902215837 66 192 0.0 0.0 0.00 0.37 0.37 94 1020.8
20260902215348 66 192 0.0 2.0 0.00 0.37 0.37 94 1020.7
20260902214839 66 192 0.0 2.0 0.00 0.37 0.37 94 1020.8
20260902214608 66 150 0.0 1.0 0.00 0.37 0.37 94 1020.4
20260902214603 66 0 0.0 1.0 0.00 0.37 0.37 94 1020.4
20260902214349 66 144 0.0 1.0 0.00 0.37 0.37 94 1020.7
20260902213839 66 167 0.0 2.0 0.00 0.37 0.37 94 1020.5
20260902213350 66 178 0.0 2.0 0.00 0.37 0.37 94 1020.6
20260902213114 66 178 0.0 2.0 0.00 0.37 0.37 94 1020.3
20260902213052 66 178 0.0 2.0 0.00 0.37 0.37 94 1020.1
20260902212837 66 164 0.0 1.0 0.00 0.37 0.37 94 1020.6
20260902212349 66 217 0.0 1.0 0.00 0.37 0.37 94 1020.5
20260902211840 66 168 0.0 2.0 0.00 0.37 0.37 94 1020.5
20260902211608 66 168 0.0 2.0 0.00 0.37 0.37 94 1020.0
20260902211548 66 0 0.0 2.0 0.00 0.37 0.37 94 1020.0
20260902211350 66 168 0.0 2.0 0.00 0.37 0.37 94 1020.4
20260902210844 66 175 0.0 1.0 0.00 0.37 0.37 94 1020.5
20260902210412 66 175 0.0 1.0 0.00 0.37 0.37 94 1020.5
20260902210114 66 175 0.0 1.0 0.00 0.37 0.37 94 1020.2
20260902210044 66 0 0.0 1.0 0.00 0.37 0.37 94 1020.2
20260902205841 66 173 0.0 1.0 0.00 0.37 0.37 94 1020.6